Weather History for Danville, IL

Change the Weather History Date:

Friday, January 25, 2013

  Actual Average (KLAF) Record (KLAF)
Temperature  
Mean Temperature 26 °F 27 °F  
Max Temperature 32 °F 34 °F 56 °F (1989)
Min Temperature 19 °F 19 °F -14 °F (1987)
Degree Days  
Heating Degree Days 40 38  
Month to date heating degree days 969  
Since 1 July heating degree days 3144  
Cooling Degree Days 0 0  
Month to date cooling degree days 0  
Year to date cooling degree days 0  
Moisture  
Dew Point 16 °F    
Average Humidity 72    
Maximum Humidity 92    
Minimum Humidity 45    
Precipitation  
Precipitation 0.00 in 0.06 in 0.86 in (1950)
Month to date precipitation 1.53  
Year to date precipitation 1.53  
Sea Level Pressure  
Sea Level Pressure 30.10 in    
Wind  
Wind Speed 8 mph (SSW)    
Max Wind Speed 16 mph    
Max Gust Speed -    
Visibility 9 miles    
Events Snow    
T = Trace of Precipitation, MM = Missing Value Source: NWS Daily Summary

Daily Weather History Graph

Daily Weather History Graph

Search for Another Location

Airport:

Trip Planner

Search our weather history database for the weather conditions in past years. The results will help you decide how hot, cold, wet, or windy it might be!

Date:

Astronomy

Jan. 25, 2013 Rise Set
Actual Time 7:04 AM CST 5:01 PM CST
Civil Twilight 6:35 AM CST 5:30 PM CST
Nautical Twilight 6:02 AM CST 6:03 PM CST
Astronomical Twilight 5:30 AM CST 6:35 PM CST
Moon 3:57 PM CST (1/25) 5:44 AM CST (1/25)
Length of Visible Light 10h 54m
Length of Day
9h 56m
Waxing Gibbous, 98% of the Moon is Illuminated
Jan 25
Waxing Gibbous
Jan 26
Full
Feb 3
Last Quarter
Feb 10
New
Feb 17
First Quarter

Hourly Weather History & Observations

Time (CST) Temp. Windchill Dew Point Humidity Pressure Visibility Wind Dir Wind Speed Gust Speed Precip Events Conditions
12:15 AM 22.5 °F 14.1 °F 4.1 °F 45% 30.31 in 10.0 mi SE 6.9 mph - N/A   Clear
12:35 AM 22.5 °F 15.1 °F 4.3 °F 46% 30.31 in 10.0 mi ESE 5.8 mph - N/A   Clear
12:55 AM 22.3 °F 13.9 °F 5.0 °F 48% 30.28 in 10.0 mi ESE 6.9 mph - N/A   Clear
1:15 AM 22.5 °F 12.4 °F 4.8 °F 47% 30.27 in 10.0 mi SE 9.2 mph - N/A   Scattered Clouds
1:35 AM 22.6 °F 13.4 °F 4.8 °F 46% 30.27 in 10.0 mi ESE 8.1 mph - N/A   Mostly Cloudy
1:55 AM 22.8 °F 13.6 °F 4.6 °F 46% 30.27 in 10.0 mi ESE 8.1 mph - N/A   Overcast
2:15 AM 22.8 °F 12.9 °F 4.5 °F 45% 30.25 in 10.0 mi ESE 9.2 mph - N/A   Overcast
2:35 AM 22.8 °F 11.5 °F 4.8 °F 46% 30.23 in 10.0 mi SE 11.5 mph - N/A   Overcast
2:55 AM 22.8 °F 12.2 °F 4.8 °F 46% 30.20 in 10.0 mi ESE 10.4 mph - N/A   Scattered Clouds
3:15 AM 22.8 °F 10.4 °F 4.3 °F 45% 30.18 in 10.0 mi SE 13.8 mph - N/A   Scattered Clouds
3:35 AM 22.8 °F 11.5 °F 4.6 °F 46% 30.16 in 10.0 mi SE 11.5 mph - N/A   Mostly Cloudy
3:55 AM 23.0 °F 13.9 °F 4.8 °F 46% 30.18 in 10.0 mi SE 8.1 mph - N/A   Overcast
4:15 AM 22.8 °F 12.9 °F 5.2 °F 47% 30.16 in 10.0 mi SE 9.2 mph - N/A Snow Light Snow
4:35 AM 22.1 °F 13.7 °F 8.2 °F 55% 30.15 in 7.0 mi SSE 6.9 mph - N/A Snow Light Snow
4:55 AM 21.2 °F 10.9 °F 11.7 °F 67% 30.15 in 4.0 mi SE 9.2 mph - N/A Snow Light Snow
5:15 AM 20.3 °F 9.8 °F 15.3 °F 81% 30.14 in 3.0 mi SSE 9.2 mph - N/A Snow Light Snow
5:35 AM 19.8 °F 13.2 °F 16.7 °F 88% 30.15 in 1.8 mi SSE 4.6 mph - N/A Snow Light Snow
5:55 AM 19.4 °F 12.8 °F 17.1 °F 91% 30.14 in 1.0 mi SSE 4.6 mph - N/A Snow Light Snow
6:15 AM 19.4 °F 12.8 °F 17.4 °F 92% 30.13 in 1.5 mi SE 4.6 mph - N/A Snow Light Snow
6:35 AM 19.4 °F 12.8 °F 17.4 °F 92% 30.13 in 5.0 mi SE 4.6 mph - N/A Snow Light Snow
6:55 AM 19.6 °F 11.7 °F 17.2 °F 91% 30.11 in 10.0 mi SE 5.8 mph - N/A Snow Light Snow
7:15 AM 19.8 °F 13.2 °F 17.1 °F 89% 30.11 in 10.0 mi SSE 4.6 mph - N/A   Overcast
7:35 AM 19.9 °F 12.1 °F 17.1 °F 89% 30.11 in 10.0 mi SSE 5.8 mph - N/A   Overcast
7:55 AM 20.1 °F - 16.9 °F 87% 30.13 in 10.0 mi Calm Calm - N/A   Mostly Cloudy
8:15 AM 20.3 °F - 17.2 °F 88% 30.13 in 10.0 mi Calm Calm - N/A   Mostly Cloudy
8:35 AM 20.7 °F 11.9 °F 17.1 °F 86% 30.11 in 10.0 mi South 6.9 mph - N/A Snow Light Snow
8:55 AM 20.8 °F 14.4 °F 17.2 °F 86% 30.11 in 10.0 mi South 4.6 mph - N/A Snow Light Snow
9:15 AM 21.4 °F 12.8 °F 17.4 °F 85% 30.11 in 10.0 mi South 6.9 mph - N/A   Overcast
9:35 AM 21.7 °F 13.2 °F 17.2 °F 83% 30.11 in 10.0 mi South 6.9 mph - N/A   Overcast
9:55 AM 22.5 °F 13.2 °F 17.8 °F 82% 30.11 in 10.0 mi South 8.1 mph - N/A   Overcast
10:15 AM 22.8 °F 15.5 °F 17.1 °F 79% 30.11 in 10.0 mi SSW 5.8 mph - N/A   Mostly Cloudy
10:35 AM 23.4 °F 13.5 °F 17.2 °F 77% 30.10 in 10.0 mi SW 9.2 mph - N/A   Mostly Cloudy
10:55 AM 23.9 °F 13.5 °F 18.3 °F 79% 30.09 in 10.0 mi SSW 10.4 mph - N/A   Overcast
11:15 AM 24.4 °F 14.9 °F 18.3 °F 78% 30.08 in 10.0 mi SW 9.2 mph - N/A   Overcast
11:35 AM 24.8 °F 14.6 °F 18.3 °F 76% 30.07 in 10.0 mi SW 10.4 mph - N/A   Mostly Cloudy
11:55 AM 25.7 °F 17.1 °F 18.9 °F 75% 30.05 in 10.0 mi SW 8.1 mph - N/A   Overcast
12:15 PM 26.4 °F 18.0 °F 18.7 °F 73% 30.04 in 10.0 mi WSW 8.1 mph - N/A   Overcast
12:35 PM 26.8 °F 17.1 °F 19.4 °F 74% 30.04 in 10.0 mi SW 10.4 mph - N/A   Overcast
12:55 PM 27.3 °F 17.7 °F 19.4 °F 72% 30.03 in 10.0 mi WSW 10.4 mph - N/A   Overcast
1:15 PM 27.9 °F 17.8 °F 19.8 °F 72% 30.02 in 10.0 mi SW 11.5 mph - N/A   Overcast
1:35 PM 28.4 °F 18.0 °F 19.9 °F 71% 30.01 in 10.0 mi WSW 12.7 mph - N/A   Overcast
1:55 PM 28.9 °F 18.6 °F 20.3 °F 70% 30.01 in 10.0 mi WSW 12.7 mph - N/A   Overcast
2:15 PM 29.3 °F 18.2 °F 20.8 °F 71% 30.01 in 10.0 mi WSW 15.0 mph - N/A   Overcast
2:35 PM 29.7 °F 18.2 °F 20.7 °F 69% 30.01 in 10.0 mi WSW 16.1 mph - N/A   Overcast
2:55 PM 30.2 °F 19.8 °F 21.2 °F 69% 30.01 in 10.0 mi SW 13.8 mph - N/A   Overcast
3:15 PM 30.7 °F 20.9 °F 21.7 °F 69% 30.01 in 10.0 mi WSW 12.7 mph - N/A   Overcast
3:35 PM 31.5 °F 22.3 °F 21.9 °F 68% 30.01 in 10.0 mi WSW 11.5 mph - N/A   Scattered Clouds
3:55 PM 32.0 °F 23.0 °F 22.3 °F 67% 30.00 in 10.0 mi WSW 11.5 mph - N/A   Clear
4:15 PM 31.8 °F 22.3 °F 22.1 °F 67% 30.00 in 10.0 mi SW 12.7 mph - N/A   Clear
4:35 PM 31.5 °F 21.8 °F 21.9 °F 68% 30.00 in 10.0 mi SW 12.7 mph - N/A   Clear
4:55 PM 30.4 °F 21.5 °F 21.7 °F 70% 30.00 in 10.0 mi SW 10.4 mph - N/A   Clear
5:15 PM 29.3 °F 21.5 °F 21.2 °F 72% 30.01 in 10.0 mi SW 8.1 mph - N/A   Clear
5:35 PM 28.2 °F 21.0 °F 21.2 °F 75% 30.02 in 10.0 mi WSW 6.9 mph - N/A   Clear
5:55 PM 27.5 °F 20.2 °F 21.0 °F 77% 30.03 in 10.0 mi WSW 6.9 mph - N/A   Clear
6:15 PM 26.6 °F 19.1 °F 20.5 °F 78% 30.03 in 10.0 mi WSW 6.9 mph - N/A   Clear
6:35 PM 26.8 °F 18.5 °F 20.3 °F 77% 30.04 in 10.0 mi WSW 8.1 mph - N/A   Clear
6:55 PM 26.6 °F 17.5 °F 20.5 °F 78% 30.04 in 10.0 mi WSW 9.2 mph - N/A   Clear
7:15 PM 27.0 °F 18.7 °F 20.5 °F 77% 30.05 in 10.0 mi SW 8.1 mph - N/A   Clear
7:35 PM 26.2 °F 17.8 °F 20.3 °F 78% 30.04 in 10.0 mi WSW 8.1 mph - N/A   Clear
7:55 PM 25.3 °F 16.7 °F 19.8 °F 79% 30.04 in 10.0 mi WSW 8.1 mph - N/A   Clear
8:15 PM 25.0 °F 16.3 °F 19.9 °F 81% 30.04 in 10.0 mi SW 8.1 mph - N/A   Clear
8:35 PM 24.3 °F 16.3 °F 19.2 °F 81% 30.05 in 10.0 mi WSW 6.9 mph - N/A   Clear
8:55 PM 26.6 °F 17.5 °F 20.1 °F 77% 30.07 in 10.0 mi WNW 9.2 mph - N/A   Clear
9:15 PM 27.1 °F 18.9 °F 19.4 °F 73% 30.08 in 10.0 mi NW 8.1 mph - N/A   Clear
9:35 PM 24.8 °F 16.1 °F 19.4 °F 80% 30.08 in 10.0 mi NW 8.1 mph - N/A   Clear
9:55 PM 24.4 °F 17.5 °F 18.5 °F 78% 30.08 in 10.0 mi NW 5.8 mph - N/A   Clear
10:15 PM 23.7 °F 16.6 °F 18.3 °F 80% 30.08 in 10.0 mi WNW 5.8 mph - N/A   Clear
10:35 PM 22.6 °F 16.5 °F 17.6 °F 81% 30.09 in 10.0 mi WNW 4.6 mph - N/A   Clear
10:55 PM 23.0 °F 17.0 °F 17.6 °F 80% 30.10 in 10.0 mi West 4.6 mph - N/A   Clear
11:15 PM 22.8 °F 13.6 °F 17.8 °F 81% 30.12 in 10.0 mi WNW 8.1 mph - N/A   Clear
11:35 PM 24.6 °F 15.1 °F 18.5 °F 78% 30.12 in 10.0 mi WNW 9.2 mph - N/A   Clear
11:55 PM 24.6 °F 13.2 °F 17.6 °F 75% 30.13 in 10.0 mi WNW 12.7 mph - N/A   Clear